Theta_e
288 288 288 288 288 288 287 286 286 286 286 285 285 285 285 284 284 283 283 283 282 282 281 281 281 281 281 281 281 280 280 280 279 279 279 279 278 278 278 277 277 277
287 287 287 287 287 287 287 286 285 285 285 285 285 285 285 284 284 283 283 282 282 281 281 281 281 281 280 280 280 280 279 279 278 279 278 278 278 278 278 277 277 277
287 286 286 286 287 286 285 284 285 285 285 285 284 284 284 284 283 283 283 282 282 281 281 281 280 280 280 280 280 279 279 278 278 278 278 278 277 277 277 277 277 277
287 287 287 287 286 286 285 284 284 284 284 283 284 284 284 284 283 282 282 282 281 281 280 280 280 280 280 279 279 279 278 278 278 278 277 277 277 277 277 277 277 277
287 287 287 287 287 286 284 284 284 284 284 284 283 283 283 282 282 282 281 281 281 280 280 280 280 279 279 279 279 278 278 277 277 277 277 276 276 277 276 277 276 276
287 287 287 287 286 285 284 284 284 284 283 283 283 283 282 282 282 282 281 281 280 280 279 279 279 279 279 278 278 278 277 277 276 277 276 276 275 276 276 276 275 275
287 286 286 286 286 285 285 284 284 284 283 283 282 282 282 282 282 281 281 281 280 280 279 279 279 278 278 278 278 277 276 276 276 276 276 275 275 275 275 275 275 274
286 286 286 286 285 285 284 284 283 283 283 282 282 282 282 282 281 281 281 281 280 279 279 279 279 278 278 278 277 276 276 276 276 276 275 274 274 274 274 274 274 273
286 285 285 285 284 284 284 284 283 283 282 282 282 281 281 282 281 281 281 280 280 279 279 279 278 278 278 277 277 276 276 276 276 276 275 274 274 274 274 274 273 273
285 285 284 284 284 285 284 284 284 282 282 282 281 281 280 281 281 281 280 280 279 279 279 278 278 278 277 277 277 277 276 276 276 276 275 275 274 274 273 273 273 272
285 285 284 284 284 285 284 284 283 282 281 281 281 281 281 280 280 280 280 280 279 279 278 278 278 277 277 277 277 277 277 276 276 275 275 274 274 274 275 273 272 272
285 285 284 284 284 284 284 284 284 282 281 281 281 281 280 280 280 280 280 279 279 279 278 278 278 277 277 277 277 276 276 276 275 275 275 274 273 273 273 273 272 271
285 285 285 285 285 285 285 284 283 282 281 281 281 281 280 280 280 280 280 280 279 279 278 278 277 277 277 276 276 276 275 275 274 274 274 273 273 273 272 272 271 271
285 285 285 285 285 284 284 283 283 282 281 281 280 280 280 280 279 279 279 279 279 279 278 278 277 277 276 276 276 275 275 274 274 273 273 272 272 272 271 271 271 270
286 285 285 285 284 283 283 283 282 282 281 280 280 280 280 280 279 279 278 278 278 278 277 277 277 276 276 276 275 275 275 274 273 273 272 272 271 271 271 271 271 271
285 285 284 284 283 283 283 282 282 281 280 279 279 279 279 279 278 278 278 278 277 277 277 277 277 277 278 280 279 275 274 274 273 272 272 271 271 271 270 271 271 270
284 284 283 283 283 283 282 281 281 279 279 279 278 278 278 278 278 278 277 278 277 277 276 276 276 277 280 282 282 280 275 273 272 272 271 272 271 271 270 270 270 270
284 283 282 283 282 282 281 281 280 278 278 278 277 277 277 277 277 277 277 277 277 277 276 276 276 279 282 283 283 282 278 273 273 272 271 271 271 271 270 270 270 270
282 282 282 281 281 281 280 279 279 278 278 277 277 278 277 277 277 277 277 277 277 276 276 276 276 280 282 283 283 282 280 276 273 272 272 271 271 271 270 270 271 271
282 282 282 282 281 280 279 279 278 278 279 278 278 277 277 277 277 277 277 276 276 276 276 276 276 280 283 283 283 283 281 277 272 272 272 271 271 271 271 271 271 271
282 282 282 281 280 279 278 278 278 278 278 278 278 277 277 277 276 276 276 276 276 276 276 275 275 280 283 284 284 283 282 277 272 272 271 271 271 272 272 272 273 273
281 281 281 280 279 278 278 278 278 278 278 278 277 277 277 277 277 277 276 276 276 276 275 275 275 281 283 284 284 284 282 273 271 271 271 271 271 272 273 273 274 273
280 280 280 279 278 278 277 278 278 277 278 278 277 277 276 276 276 276 276 276 275 274 274 274 274 279 283 284 284 284 281 271 271 271 271 271 272 273 273 274 273 273
280 280 280 279 278 278 278 278 277 277 277 277 276 276 275 276 276 275 275 275 275 274 274 273 273 278 283 284 284 284 278 271 271 272 272 272 272 273 273 272 273 275
278 278 279 279 278 278 278 277 277 277 277 276 276 276 275 275 275 274 273 273 274 274 276 274 273 277 283 284 284 284 278 273 272 272 272 272 272 272 272 272 272 275
278 279 279 279 278 277 277 277 276 275 274 275 274 275 274 274 274 273 273 273 273 273 274 274 272 274 280 284 284 284 280 274 273 273 272 272 272 271 270 271 271 273
Wind_Speed
11 10 12 11 12 10 10 11 11 12 12 10 12 12 13 11 10 13 12 11 11 11 9 9 9 9 9 9 9 8 8 9 8 7 8 8 7 8 8 7 6 6
13 11 9 9 9 9 10 11 11 12 12 12 11 9 9 10 11 12 12 12 11 11 10 10 9 9 9 9 9 9 8 8 9 6 8 9 7 7 7 7 7 6
11 12 14 14 14 12 10 8 8 10 10 11 8 9 10 10 11 11 11 12 11 11 11 10 10 10 10 9 9 9 9 9 9 7 8 8 7 7 7 7 7 8
15 16 15 14 12 12 10 9 10 10 9 9 13 10 10 9 11 12 12 12 11 11 10 10 11 10 10 9 9 8 8 8 7 7 7 6 7 7 8 7 6 6
15 13 12 13 12 11 10 13 14 13 13 12 8 10 11 11 12 12 12 12 11 11 10 11 10 10 9 9 9 8 8 8 7 8 8 8 7 7 7 7 7 7
12 14 14 14 13 12 12 14 14 12 12 10 13 10 10 12 12 13 14 13 12 12 11 11 11 10 10 10 9 8 8 8 8 9 9 9 8 6 6 7 8 8
17 15 16 13 11 12 13 13 11 12 12 12 8 12 12 13 13 14 14 14 13 13 13 13 12 12 10 10 10 9 8 8 8 9 10 8 8 8 6 7 8 8
15 12 12 10 12 12 13 12 11 12 11 10 13 12 13 14 14 13 13 14 14 13 13 13 13 13 12 11 12 11 10 8 9 10 10 9 9 9 8 7 7 8
12 11 10 11 13 12 14 14 13 11 10 13 13 12 12 13 14 14 14 14 13 13 13 13 13 13 12 12 12 13 13 11 11 11 12 12 12 11 10 8 9 8
13 13 12 14 14 14 16 15 13 11 11 13 13 11 13 12 13 14 14 14 15 14 15 14 14 13 13 13 14 14 13 13 12 12 11 11 12 11 11 11 11 10
15 14 14 15 16 15 18 16 14 13 12 14 13 14 14 13 12 13 14 15 16 17 16 15 15 14 14 14 13 12 13 12 13 12 12 11 11 11 11 12 11 11
16 14 16 17 18 17 18 16 15 14 13 12 14 15 14 14 15 14 15 17 16 16 16 16 15 15 16 15 15 13 12 12 11 12 11 11 10 10 11 10 10 10
15 16 17 17 18 17 14 12 13 13 13 13 13 14 14 14 14 16 14 16 16 15 16 16 16 15 14 13 13 13 13 13 12 11 11 10 10 10 9 9 8 8
15 15 15 16 14 11 11 12 11 11 13 12 11 13 15 16 16 16 14 13 14 15 15 14 15 14 14 14 13 14 13 13 13 12 12 10 9 9 8 8 9 8
13 12 13 12 10 10 12 13 13 14 12 12 13 13 12 13 12 13 13 13 12 13 14 13 15 15 14 15 15 14 13 14 14 13 12 12 10 9 8 7 7 7
12 11 10 9 10 13 14 13 12 12 12 13 13 13 12 11 12 13 14 15 15 14 13 13 14 12 15 24 20 16 15 12 11 12 12 11 11 9 7 8 8 6
9 11 9 11 13 11 10 11 12 11 12 12 11 12 13 13 13 15 15 14 16 16 17 14 13 11 21 25 25 23 16 13 14 12 11 11 8 8 9 9 8 7
11 10 10 12 10 13 12 11 10 11 12 12 12 13 13 12 14 15 14 14 14 14 16 15 14 16 25 25 25 25 19 13 11 11 11 11 8 8 8 8 9 8
8 10 11 11 12 12 10 10 12 13 13 13 16 14 11 13 16 15 15 14 15 16 16 14 13 19 25 26 25 25 24 16 10 11 12 11 9 10 10 10 9 9
8 9 11 11 9 9 10 11 13 15 14 12 11 11 14 14 14 16 15 16 16 16 15 13 13 18 24 25 25 25 25 18 10 12 11 11 10 10 9 10 11 10
7 8 10 8 7 9 10 12 13 11 12 13 13 15 16 16 16 16 15 14 12 11 11 12 11 21 25 26 25 26 25 17 10 10 9 10 8 9 11 11 11 10
5 7 6 5 7 8 10 12 12 13 14 12 11 10 9 9 9 10 13 13 13 13 13 12 10 22 24 25 26 25 25 12 11 11 11 10 10 11 10 10 10 9
4 5 5 5 6 8 11 11 11 10 9 7 10 10 10 11 11 11 10 11 12 11 12 10 9 18 24 24 26 27 20 11 12 10 10 11 11 11 10 10 7 9
5 5 6 6 7 10 10 8 7 6 8 8 11 11 11 11 10 9 9 10 12 12 12 11 11 17 24 25 25 29 18 14 12 12 11 11 10 10 8 8 10 17
5 5 5 6 8 8 7 8 8 8 7 7 8 8 9 8 9 10 9 9 11 13 14 14 12 15 25 26 28 29 19 12 12 11 12 11 11 10 8 8 9 13
4 5 6 6 7 6 5 6 5 5 7 8 7 7 8 8 9 9 11 10 11 12 13 13 12 12 17 27 27 28 23 13 11 12 13 13 11 11 10 9 9 8
Wind_Direction
198 198 201 198 203 201 192 191 193 194 195 191 196 196 193 188 173 187 189 183 185 184 183 180 178 179 178 176 176 169 175 177 174 168 171 165 167 163 165 162 154 150
206 202 203 202 205 203 201 195 192 192 195 195 198 185 186 175 185 182 186 185 182 186 178 179 181 181 179 178 176 173 173 174 175 170 166 169 164 157 155 154 151 151
202 202 203 203 205 203 198 188 187 196 195 197 184 185 184 179 177 183 185 184 183 182 180 179 179 182 180 179 177 177 177 173 175 170 165 166 154 160 161 159 159 163
209 207 206 208 203 198 190 181 192 195 192 185 196 184 173 178 176 180 184 183 183 182 181 179 183 178 179 177 174 181 179 180 170 157 154 151 164 160 165 162 161 159
209 213 214 212 207 195 184 192 196 196 194 196 173 176 177 173 177 179 182 185 183 182 179 182 178 180 175 175 177 175 176 172 163 163 162 167 169 163 166 161 162 163
215 212 211 211 208 198 197 201 201 194 192 185 191 174 179 176 178 182 182 182 184 181 180 180 179 178 176 175 176 181 174 172 171 166 166 169 167 166 161 166 164 169
213 209 212 208 206 207 208 207 200 195 194 192 161 184 178 180 182 184 181 182 181 183 182 182 179 177 178 174 179 178 178 173 168 171 167 168 161 167 170 169 174 172
219 216 214 203 206 206 210 209 205 200 191 173 187 186 179 183 183 181 182 180 181 184 184 184 183 180 176 176 179 176 176 174 175 173 170 168 166 174 175 176 172 169
219 214 206 207 210 209 210 208 206 199 184 188 188 182 184 183 183 180 178 179 181 183 184 185 185 181 179 178 181 179 178 179 180 177 175 173 177 181 177 170 169 175
217 215 205 207 207 211 211 209 202 197 189 191 186 179 183 186 181 179 176 179 182 183 186 185 183 184 181 183 182 180 180 181 179 182 182 182 180 176 175 176 177 171
218 210 210 209 210 210 211 206 200 196 190 190 183 186 185 178 181 177 178 180 185 186 184 183 185 182 181 184 184 183 182 180 181 182 183 183 182 180 179 177 178 181
218 210 213 212 213 213 211 203 199 194 191 192 188 187 183 184 179 180 184 186 186 184 183 183 182 184 185 184 182 180 181 182 181 182 182 181 181 183 182 181 179 174
219 214 213 215 215 214 209 202 200 194 188 193 191 190 183 183 186 184 187 185 187 182 184 183 182 182 183 184 183 181 179 178 178 180 180 180 185 183 179 177 174 171
222 219 218 219 219 212 203 201 195 191 192 189 184 190 190 189 186 187 186 185 185 184 185 180 179 181 182 182 183 182 180 180 178 177 177 178 177 177 174 175 175 174
224 221 221 221 210 202 202 198 195 193 188 185 188 192 189 189 185 180 178 185 187 186 183 182 183 185 183 180 179 183 183 179 177 176 175 174 172 173 174 168 168 174
226 223 219 211 203 205 204 198 194 188 185 188 189 187 184 180 180 183 184 185 182 184 185 186 191 189 185 181 180 178 178 177 173 175 174 172 169 165 161 168 173 169
225 222 209 207 209 205 200 194 190 186 186 185 183 183 183 181 181 186 189 186 186 185 186 190 191 189 184 184 183 179 173 173 173 172 173 171 164 150 160 167 170 168
223 215 206 212 201 203 196 190 181 179 184 184 182 183 186 182 187 191 187 188 188 188 190 191 190 186 185 185 182 178 174 170 170 169 169 172 154 157 159 163 165 162
222 212 212 206 204 198 188 181 181 183 185 183 189 188 174 184 192 185 192 189 187 190 193 191 192 185 186 184 180 178 174 168 172 167 167 170 157 164 165 164 163 163
220 214 213 212 200 189 183 185 186 192 190 186 178 175 187 190 188 191 189 190 191 190 190 189 189 185 184 183 181 177 173 168 167 164 166 167 162 164 162 163 167 166
226 220 222 210 193 188 187 193 194 190 184 187 185 188 188 190 188 190 192 190 188 186 185 187 187 184 185 184 180 176 173 160 160 161 162 165 158 161 169 167 167 169
240 236 229 210 194 191 195 199 197 193 191 187 186 190 191 185 192 190 188 187 187 185 186 187 180 184 184 183 179 175 169 151 161 163 163 165 166 170 170 171 170 163
259 241 232 212 199 199 205 203 198 200 195 182 185 189 186 189 191 187 186 183 183 184 182 178 171 185 186 184 183 180 171 152 162 163 165 166 170 169 170 170 158 158
259 244 232 213 204 211 208 204 200 195 193 183 188 186 188 190 179 177 180 181 181 183 182 174 174 184 185 185 183 186 168 161 166 167 165 166 164 166 164 164 164 169
244 232 227 214 213 215 203 200 194 192 186 180 189 185 187 176 176 177 176 177 181 179 175 175 176 184 188 188 187 188 170 166 167 167 164 166 164 162 162 162 169 178
243 232 225 216 216 205 193 196 174 166 175 180 185 182 179 177 179 179 178 182 176 177 181 175 170 182 191 191 190 187 171 167 171 168 171 165 165 164 159 170 173 181